Index of /20260411/WXO-DD/model_rdps/10km/12/054
Name Last modified Size Description
Parent Directory -
20260411T12Z_MSC_RDPS_AbsoluteVorticity_IsbL-0250_RLatLon0.09_PT054H.grib2 2026-04-11 15:03 600K
20260411T12Z_MSC_RDPS_AbsoluteVorticity_IsbL-0500_RLatLon0.09_PT054H.grib2 2026-04-11 15:03 564K
20260411T12Z_MSC_RDPS_AbsoluteVorticity_IsbL-0700_RLatLon0.09_PT054H.grib2 2026-04-11 15:03 626K
20260411T12Z_MSC_RDPS_AbsoluteVorticity_IsbL-0850_RLatLon0.09_PT054H.grib2 2026-04-11 15:03 791K
20260411T12Z_MSC_RDPS_AirTemp_AGL-120m_RLatLon0.09_PT054H.grib2 2026-04-11 15:03 398K
20260411T12Z_MSC_RDPS_AirTemp_AGL-2m_RLatLon0.09_PT054H.grib2 2026-04-11 15:03 641K
20260411T12Z_MSC_RDPS_AirTemp_AGL-40m_RLatLon0.09_PT054H.grib2 2026-04-11 15:03 410K
20260411T12Z_MSC_RDPS_AirTemp_AGL-80m_RLatLon0.09_PT054H.grib2 2026-04-11 15:03 404K
20260411T12Z_MSC_RDPS_AirTemp_IsbL-0001_RLatLon0.09_PT054H.grib2 2026-04-11 15:03 324K
20260411T12Z_MSC_RDPS_AirTemp_IsbL-0005_RLatLon0.09_PT054H.grib2 2026-04-11 15:03 260K
20260411T12Z_MSC_RDPS_AirTemp_IsbL-0010_RLatLon0.09_PT054H.grib2 2026-04-11 15:03 351K
20260411T12Z_MSC_RDPS_AirTemp_IsbL-0020_RLatLon0.09_PT054H.grib2 2026-04-11 15:03 371K
20260411T12Z_MSC_RDPS_AirTemp_IsbL-0030_RLatLon0.09_PT054H.grib2 2026-04-11 15:03 301K
20260411T12Z_MSC_RDPS_AirTemp_IsbL-0050_RLatLon0.09_PT054H.grib2 2026-04-11 15:03 335K
20260411T12Z_MSC_RDPS_AirTemp_IsbL-0100_RLatLon0.09_PT054H.grib2 2026-04-11 15:03 401K
20260411T12Z_MSC_RDPS_AirTemp_IsbL-0150_RLatLon0.09_PT054H.grib2 2026-04-11 15:03 416K
20260411T12Z_MSC_RDPS_AirTemp_IsbL-0175_RLatLon0.09_PT054H.grib2 2026-04-11 15:03 411K
20260411T12Z_MSC_RDPS_AirTemp_IsbL-0200_RLatLon0.09_PT054H.grib2 2026-04-11 15:03 411K
20260411T12Z_MSC_RDPS_AirTemp_IsbL-0225_RLatLon0.09_PT054H.grib2 2026-04-11 15:03 414K
20260411T12Z_MSC_RDPS_AirTemp_IsbL-0250_RLatLon0.09_PT054H.grib2 2026-04-11 15:03 418K
20260411T12Z_MSC_RDPS_AirTemp_IsbL-0275_RLatLon0.09_PT054H.grib2 2026-04-11 15:03 401K
20260411T12Z_MSC_RDPS_AirTemp_IsbL-0300_RLatLon0.09_PT054H.grib2 2026-04-11 15:03 431K
20260411T12Z_MSC_RDPS_AirTemp_IsbL-0350_RLatLon0.09_PT054H.grib2 2026-04-11 15:03 420K
20260411T12Z_MSC_RDPS_AirTemp_IsbL-0400_RLatLon0.09_PT054H.grib2 2026-04-11 15:03 389K
20260411T12Z_MSC_RDPS_AirTemp_IsbL-0450_RLatLon0.09_PT054H.grib2 2026-04-11 15:03 396K
20260411T12Z_MSC_RDPS_AirTemp_IsbL-0500_RLatLon0.09_PT054H.grib2 2026-04-11 15:03 408K
20260411T12Z_MSC_RDPS_AirTemp_IsbL-0550_RLatLon0.09_PT054H.grib2 2026-04-11 15:03 429K
20260411T12Z_MSC_RDPS_AirTemp_IsbL-0600_RLatLon0.09_PT054H.grib2 2026-04-11 15:03 448K
20260411T12Z_MSC_RDPS_AirTemp_IsbL-0650_RLatLon0.09_PT054H.grib2 2026-04-11 15:03 359K
20260411T12Z_MSC_RDPS_AirTemp_IsbL-0700_RLatLon0.09_PT054H.grib2 2026-04-11 15:03 383K
20260411T12Z_MSC_RDPS_AirTemp_IsbL-0750_RLatLon0.09_PT054H.grib2 2026-04-11 15:03 420K
20260411T12Z_MSC_RDPS_AirTemp_IsbL-0800_RLatLon0.09_PT054H.grib2 2026-04-11 15:03 467K
20260411T12Z_MSC_RDPS_AirTemp_IsbL-0850_RLatLon0.09_PT054H.grib2 2026-04-11 15:03 510K
20260411T12Z_MSC_RDPS_AirTemp_IsbL-0875_RLatLon0.09_PT054H.grib2 2026-04-11 15:03 522K
20260411T12Z_MSC_RDPS_AirTemp_IsbL-0900_RLatLon0.09_PT054H.grib2 2026-04-11 15:03 526K
20260411T12Z_MSC_RDPS_AirTemp_IsbL-0925_RLatLon0.09_PT054H.grib2 2026-04-11 15:03 535K
20260411T12Z_MSC_RDPS_AirTemp_IsbL-0950_RLatLon0.09_PT054H.grib2 2026-04-11 15:03 534K
20260411T12Z_MSC_RDPS_AirTemp_IsbL-0970_RLatLon0.09_PT054H.grib2 2026-04-11 15:03 530K
20260411T12Z_MSC_RDPS_AirTemp_IsbL-0985_RLatLon0.09_PT054H.grib2 2026-04-11 15:03 523K
20260411T12Z_MSC_RDPS_AirTemp_IsbL-1000_RLatLon0.09_PT054H.grib2 2026-04-11 15:03 512K
20260411T12Z_MSC_RDPS_AirTemp_IsbL-1015_RLatLon0.09_PT054H.grib2 2026-04-11 15:03 510K
20260411T12Z_MSC_RDPS_Albedo_Sfc_RLatLon0.09_PT054H.grib2 2026-04-11 15:03 166K
20260411T12Z_MSC_RDPS_CAPE_Sfc_RLatLon0.09_PT054H.grib2 2026-04-11 15:03 1.7M
20260411T12Z_MSC_RDPS_CIN_Sfc_RLatLon0.09_PT054H.grib2 2026-04-11 15:03 1.2M
20260411T12Z_MSC_RDPS_CloudWater_EAtm_RLatLon0.09_PT054H.grib2 2026-04-11 15:03 211K
20260411T12Z_MSC_RDPS_ConvectivePrecip-Accum_Sfc_RLatLon0.09_PT054H.grib2 2026-04-11 15:03 1.2M
20260411T12Z_MSC_RDPS_DewPointDepression_AGL-2m_RLatLon0.09_PT054H.grib2 2026-04-11 15:03 408K
20260411T12Z_MSC_RDPS_DewPointDepression_IsbL-0001_RLatLon0.09_PT054H.grib2 2026-04-11 15:03 193
20260411T12Z_MSC_RDPS_DewPointDepression_IsbL-0005_RLatLon0.09_PT054H.grib2 2026-04-11 15:03 193
20260411T12Z_MSC_RDPS_DewPointDepression_IsbL-0010_RLatLon0.09_PT054H.grib2 2026-04-11 15:03 193
20260411T12Z_MSC_RDPS_DewPointDepression_IsbL-0020_RLatLon0.09_PT054H.grib2 2026-04-11 15:03 193
20260411T12Z_MSC_RDPS_DewPointDepression_IsbL-0030_RLatLon0.09_PT054H.grib2 2026-04-11 15:03 29K
20260411T12Z_MSC_RDPS_DewPointDepression_IsbL-0050_RLatLon0.09_PT054H.grib2 2026-04-11 15:03 110K
20260411T12Z_MSC_RDPS_DewPointDepression_IsbL-0100_RLatLon0.09_PT054H.grib2 2026-04-11 15:03 130K
20260411T12Z_MSC_RDPS_DewPointDepression_IsbL-0150_RLatLon0.09_PT054H.grib2 2026-04-11 15:03 140K
20260411T12Z_MSC_RDPS_DewPointDepression_IsbL-0175_RLatLon0.09_PT054H.grib2 2026-04-11 15:03 176K
20260411T12Z_MSC_RDPS_DewPointDepression_IsbL-0200_RLatLon0.09_PT054H.grib2 2026-04-11 15:03 207K
20260411T12Z_MSC_RDPS_DewPointDepression_IsbL-0225_RLatLon0.09_PT054H.grib2 2026-04-11 15:03 244K
20260411T12Z_MSC_RDPS_DewPointDepression_IsbL-0250_RLatLon0.09_PT054H.grib2 2026-04-11 15:03 276K
20260411T12Z_MSC_RDPS_DewPointDepression_IsbL-0275_RLatLon0.09_PT054H.grib2 2026-04-11 15:03 292K
20260411T12Z_MSC_RDPS_DewPointDepression_IsbL-0300_RLatLon0.09_PT054H.grib2 2026-04-11 15:03 312K
20260411T12Z_MSC_RDPS_DewPointDepression_IsbL-0350_RLatLon0.09_PT054H.grib2 2026-04-11 15:03 323K
20260411T12Z_MSC_RDPS_DewPointDepression_IsbL-0400_RLatLon0.09_PT054H.grib2 2026-04-11 15:03 333K
20260411T12Z_MSC_RDPS_DewPointDepression_IsbL-0450_RLatLon0.09_PT054H.grib2 2026-04-11 15:03 339K
20260411T12Z_MSC_RDPS_DewPointDepression_IsbL-0500_RLatLon0.09_PT054H.grib2 2026-04-11 15:03 346K
20260411T12Z_MSC_RDPS_DewPointDepression_IsbL-0550_RLatLon0.09_PT054H.grib2 2026-04-11 15:03 359K
20260411T12Z_MSC_RDPS_DewPointDepression_IsbL-0600_RLatLon0.09_PT054H.grib2 2026-04-11 15:03 372K
20260411T12Z_MSC_RDPS_DewPointDepression_IsbL-0650_RLatLon0.09_PT054H.grib2 2026-04-11 15:03 381K
20260411T12Z_MSC_RDPS_DewPointDepression_IsbL-0700_RLatLon0.09_PT054H.grib2 2026-04-11 15:03 398K
20260411T12Z_MSC_RDPS_DewPointDepression_IsbL-0750_RLatLon0.09_PT054H.grib2 2026-04-11 15:03 422K
20260411T12Z_MSC_RDPS_DewPointDepression_IsbL-0800_RLatLon0.09_PT054H.grib2 2026-04-11 15:03 451K
20260411T12Z_MSC_RDPS_DewPointDepression_IsbL-0850_RLatLon0.09_PT054H.grib2 2026-04-11 15:03 475K
20260411T12Z_MSC_RDPS_DewPointDepression_IsbL-0875_RLatLon0.09_PT054H.grib2 2026-04-11 15:03 472K
20260411T12Z_MSC_RDPS_DewPointDepression_IsbL-0900_RLatLon0.09_PT054H.grib2 2026-04-11 15:03 457K
20260411T12Z_MSC_RDPS_DewPointDepression_IsbL-0925_RLatLon0.09_PT054H.grib2 2026-04-11 15:03 445K
20260411T12Z_MSC_RDPS_DewPointDepression_IsbL-0950_RLatLon0.09_PT054H.grib2 2026-04-11 15:03 436K
20260411T12Z_MSC_RDPS_DewPointDepression_IsbL-0970_RLatLon0.09_PT054H.grib2 2026-04-11 15:03 433K
20260411T12Z_MSC_RDPS_DewPointDepression_IsbL-0985_RLatLon0.09_PT054H.grib2 2026-04-11 15:03 431K
20260411T12Z_MSC_RDPS_DewPointDepression_IsbL-1000_RLatLon0.09_PT054H.grib2 2026-04-11 15:03 426K
20260411T12Z_MSC_RDPS_DewPointDepression_IsbL-1015_RLatLon0.09_PT054H.grib2 2026-04-11 15:03 418K
20260411T12Z_MSC_RDPS_DewPoint_AGL-2m_RLatLon0.09_PT054H.grib2 2026-04-11 15:03 312K
20260411T12Z_MSC_RDPS_DownwardLongwaveRadiationFlux-Accum_Sfc_RLatLon0.09_PT054H.grib2 2026-04-11 15:03 372K
20260411T12Z_MSC_RDPS_DownwardShortwaveRadiationFlux-Accum_NTAtm_RLatLon0.09_PT054H.grib2 2026-04-11 15:03 109K
20260411T12Z_MSC_RDPS_DownwardShortwaveRadiationFlux-Accum_Sfc_RLatLon0.09_PT054H.grib2 2026-04-11 15:03 554K
20260411T12Z_MSC_RDPS_FreezingRain-Accum12h_Sfc_RLatLon0.09_PT054H.grib2 2026-04-11 15:03 49K
20260411T12Z_MSC_RDPS_FreezingRain-Accum1h_Sfc_RLatLon0.09_PT054H.grib2 2026-04-11 15:03 7.0K
20260411T12Z_MSC_RDPS_FreezingRain-Accum24h_Sfc_RLatLon0.09_PT054H.grib2 2026-04-11 15:03 73K
20260411T12Z_MSC_RDPS_FreezingRain-Accum3h_Sfc_RLatLon0.09_PT054H.grib2 2026-04-11 15:03 12K
20260411T12Z_MSC_RDPS_FreezingRain-Accum6h_Sfc_RLatLon0.09_PT054H.grib2 2026-04-11 15:03 26K
20260411T12Z_MSC_RDPS_FreezingRain-Accum_Sfc_RLatLon0.09_PT054H.grib2 2026-04-11 15:03 133K
20260411T12Z_MSC_RDPS_GeopotentialHeight_IsbL-0001_RLatLon0.09_PT054H.grib2 2026-04-11 15:03 248K
20260411T12Z_MSC_RDPS_GeopotentialHeight_IsbL-0005_RLatLon0.09_PT054H.grib2 2026-04-11 15:03 274K
20260411T12Z_MSC_RDPS_GeopotentialHeight_IsbL-0010_RLatLon0.09_PT054H.grib2 2026-04-11 15:03 318K
20260411T12Z_MSC_RDPS_GeopotentialHeight_IsbL-0020_RLatLon0.09_PT054H.grib2 2026-04-11 15:03 242K
20260411T12Z_MSC_RDPS_GeopotentialHeight_IsbL-0030_RLatLon0.09_PT054H.grib2 2026-04-11 15:03 244K
20260411T12Z_MSC_RDPS_GeopotentialHeight_IsbL-0050_RLatLon0.09_PT054H.grib2 2026-04-11 15:03 244K
20260411T12Z_MSC_RDPS_GeopotentialHeight_IsbL-0100_RLatLon0.09_PT054H.grib2 2026-04-11 15:03 225K
20260411T12Z_MSC_RDPS_GeopotentialHeight_IsbL-0150_RLatLon0.09_PT054H.grib2 2026-04-11 15:03 266K
20260411T12Z_MSC_RDPS_GeopotentialHeight_IsbL-0175_RLatLon0.09_PT054H.grib2 2026-04-11 15:03 268K
20260411T12Z_MSC_RDPS_GeopotentialHeight_IsbL-0200_RLatLon0.09_PT054H.grib2 2026-04-11 15:03 269K
20260411T12Z_MSC_RDPS_GeopotentialHeight_IsbL-0225_RLatLon0.09_PT054H.grib2 2026-04-11 15:03 270K
20260411T12Z_MSC_RDPS_GeopotentialHeight_IsbL-0250_RLatLon0.09_PT054H.grib2 2026-04-11 15:03 270K
20260411T12Z_MSC_RDPS_GeopotentialHeight_IsbL-0275_RLatLon0.09_PT054H.grib2 2026-04-11 15:03 268K
20260411T12Z_MSC_RDPS_GeopotentialHeight_IsbL-0300_RLatLon0.09_PT054H.grib2 2026-04-11 15:03 268K
20260411T12Z_MSC_RDPS_GeopotentialHeight_IsbL-0350_RLatLon0.09_PT054H.grib2 2026-04-11 15:03 262K
20260411T12Z_MSC_RDPS_GeopotentialHeight_IsbL-0400_RLatLon0.09_PT054H.grib2 2026-04-11 15:03 258K
20260411T12Z_MSC_RDPS_GeopotentialHeight_IsbL-0450_RLatLon0.09_PT054H.grib2 2026-04-11 15:03 224K
20260411T12Z_MSC_RDPS_GeopotentialHeight_IsbL-0500_RLatLon0.09_PT054H.grib2 2026-04-11 15:03 220K
20260411T12Z_MSC_RDPS_GeopotentialHeight_IsbL-0550_RLatLon0.09_PT054H.grib2 2026-04-11 15:03 288K
20260411T12Z_MSC_RDPS_GeopotentialHeight_IsbL-0600_RLatLon0.09_PT054H.grib2 2026-04-11 15:03 286K
20260411T12Z_MSC_RDPS_GeopotentialHeight_IsbL-0650_RLatLon0.09_PT054H.grib2 2026-04-11 15:03 285K
20260411T12Z_MSC_RDPS_GeopotentialHeight_IsbL-0700_RLatLon0.09_PT054H.grib2 2026-04-11 15:03 285K
20260411T12Z_MSC_RDPS_GeopotentialHeight_IsbL-0750_RLatLon0.09_PT054H.grib2 2026-04-11 15:03 286K
20260411T12Z_MSC_RDPS_GeopotentialHeight_IsbL-0800_RLatLon0.09_PT054H.grib2 2026-04-11 15:03 270K
20260411T12Z_MSC_RDPS_GeopotentialHeight_IsbL-0850_RLatLon0.09_PT054H.grib2 2026-04-11 15:03 279K
20260411T12Z_MSC_RDPS_GeopotentialHeight_IsbL-0875_RLatLon0.09_PT054H.grib2 2026-04-11 15:03 281K
20260411T12Z_MSC_RDPS_GeopotentialHeight_IsbL-0900_RLatLon0.09_PT054H.grib2 2026-04-11 15:03 372K
20260411T12Z_MSC_RDPS_GeopotentialHeight_IsbL-0925_RLatLon0.09_PT054H.grib2 2026-04-11 15:03 372K
20260411T12Z_MSC_RDPS_GeopotentialHeight_IsbL-0950_RLatLon0.09_PT054H.grib2 2026-04-11 15:03 377K
20260411T12Z_MSC_RDPS_GeopotentialHeight_IsbL-0970_RLatLon0.09_PT054H.grib2 2026-04-11 15:03 383K
20260411T12Z_MSC_RDPS_GeopotentialHeight_IsbL-0985_RLatLon0.09_PT054H.grib2 2026-04-11 15:03 392K
20260411T12Z_MSC_RDPS_GeopotentialHeight_IsbL-1000_RLatLon0.09_PT054H.grib2 2026-04-11 15:03 311K
20260411T12Z_MSC_RDPS_GeopotentialHeight_IsbL-1015_RLatLon0.09_PT054H.grib2 2026-04-11 15:03 321K
20260411T12Z_MSC_RDPS_Humidex_Sfc_RLatLon0.09_PT054H.grib2 2026-04-11 15:03 2.4M
20260411T12Z_MSC_RDPS_IcePellets-Accum12h_Sfc_RLatLon0.09_PT054H.grib2 2026-04-11 15:03 17K
20260411T12Z_MSC_RDPS_IcePellets-Accum1h_Sfc_RLatLon0.09_PT054H.grib2 2026-04-11 15:03 5.6K
20260411T12Z_MSC_RDPS_IcePellets-Accum24h_Sfc_RLatLon0.09_PT054H.grib2 2026-04-11 15:03 20K
20260411T12Z_MSC_RDPS_IcePellets-Accum3h_Sfc_RLatLon0.09_PT054H.grib2 2026-04-11 15:03 7.6K
20260411T12Z_MSC_RDPS_IcePellets-Accum6h_Sfc_RLatLon0.09_PT054H.grib2 2026-04-11 15:03 11K
20260411T12Z_MSC_RDPS_IcePellets-Accum_Sfc_RLatLon0.09_PT054H.grib2 2026-04-11 15:03 32K
20260411T12Z_MSC_RDPS_KIndex_Sfc_RLatLon0.09_PT054H.grib2 2026-04-11 15:03 2.5M
20260411T12Z_MSC_RDPS_LatentHeatNetFlux_Sfc_RLatLon0.09_PT054H.grib2 2026-04-11 15:03 293K
20260411T12Z_MSC_RDPS_LiftedIndex-MU-VT_IsbL-0500_RLatLon0.09_PT054H.grib2 2026-04-11 15:03 2.4M
20260411T12Z_MSC_RDPS_NetLongwaveRadiationFlux-Accum_Sfc_RLatLon0.09_PT054H.grib2 2026-04-11 15:03 547K
20260411T12Z_MSC_RDPS_NetShortwaveRadiationFlux-Accum_Sfc_RLatLon0.09_PT054H.grib2 2026-04-11 15:03 565K
20260411T12Z_MSC_RDPS_PlanetaryBoundaryLayerHeight_Sfc_RLatLon0.09_PT054H.grib2 2026-04-11 15:03 1.0M
20260411T12Z_MSC_RDPS_Precip-Accum12h_Sfc_RLatLon0.09_PT054H.grib2 2026-04-11 15:03 1.8M
20260411T12Z_MSC_RDPS_Precip-Accum1h_Sfc_RLatLon0.09_PT054H.grib2 2026-04-11 15:03 1.4M
20260411T12Z_MSC_RDPS_Precip-Accum24h_Sfc_RLatLon0.09_PT054H.grib2 2026-04-11 15:03 2.0M
20260411T12Z_MSC_RDPS_Precip-Accum3h_Sfc_RLatLon0.09_PT054H.grib2 2026-04-11 15:03 1.5M
20260411T12Z_MSC_RDPS_Precip-Accum6h_Sfc_RLatLon0.09_PT054H.grib2 2026-04-11 15:03 1.6M
20260411T12Z_MSC_RDPS_Precip-Accum_Sfc_RLatLon0.09_PT054H.grib2 2026-04-11 15:03 2.1M
20260411T12Z_MSC_RDPS_PrecipRate_Sfc_RLatLon0.09_PT054H.grib2 2026-04-11 15:03 194K
20260411T12Z_MSC_RDPS_PrecipType-Instant_Sfc_RLatLon0.09_PT054H.grib2 2026-04-11 15:03 627K
20260411T12Z_MSC_RDPS_Pressure-Trend3h_Sfc_RLatLon0.09_PT054H.grib2 2026-04-11 15:03 1.2M
20260411T12Z_MSC_RDPS_Pressure_MSL_RLatLon0.09_PT054H.grib2 2026-04-11 15:03 336K
20260411T12Z_MSC_RDPS_Pressure_PVU-1.5_RLatLon0.09_PT054H.grib2 2026-04-11 15:03 2.5M
20260411T12Z_MSC_RDPS_Pressure_PVU-1_RLatLon0.09_PT054H.grib2 2026-04-11 15:03 2.4M
20260411T12Z_MSC_RDPS_Pressure_PVU-2_RLatLon0.09_PT054H.grib2 2026-04-11 15:03 2.4M
20260411T12Z_MSC_RDPS_Pressure_Sfc_RLatLon0.09_PT054H.grib2 2026-04-11 15:03 502K
20260411T12Z_MSC_RDPS_RadiativeTemp_Sfc_RLatLon0.09_PT054H.grib2 2026-04-11 15:03 328K
20260411T12Z_MSC_RDPS_Rain-Accum12h_Sfc_RLatLon0.09_PT054H.grib2 2026-04-11 15:03 1.2M
20260411T12Z_MSC_RDPS_Rain-Accum1h_Sfc_RLatLon0.09_PT054H.grib2 2026-04-11 15:03 689K
20260411T12Z_MSC_RDPS_Rain-Accum24h_Sfc_RLatLon0.09_PT054H.grib2 2026-04-11 15:03 1.4M
20260411T12Z_MSC_RDPS_Rain-Accum3h_Sfc_RLatLon0.09_PT054H.grib2 2026-04-11 15:03 781K
20260411T12Z_MSC_RDPS_Rain-Accum6h_Sfc_RLatLon0.09_PT054H.grib2 2026-04-11 15:03 1.0M
20260411T12Z_MSC_RDPS_Rain-Accum_Sfc_RLatLon0.09_PT054H.grib2 2026-04-11 15:03 1.6M
20260411T12Z_MSC_RDPS_RelativeHumidity_AGL-2m_RLatLon0.09_PT054H.grib2 2026-04-11 15:03 1.0M
20260411T12Z_MSC_RDPS_RelativeHumidity_IsbL-0010_RLatLon0.09_PT054H.grib2 2026-04-11 15:03 432K
20260411T12Z_MSC_RDPS_RelativeHumidity_IsbL-0020_RLatLon0.09_PT054H.grib2 2026-04-11 15:03 406K
20260411T12Z_MSC_RDPS_RelativeHumidity_IsbL-0030_RLatLon0.09_PT054H.grib2 2026-04-11 15:03 381K
20260411T12Z_MSC_RDPS_RelativeHumidity_IsbL-0050_RLatLon0.09_PT054H.grib2 2026-04-11 15:03 398K
20260411T12Z_MSC_RDPS_RelativeHumidity_IsbL-0100_RLatLon0.09_PT054H.grib2 2026-04-11 15:03 268K
20260411T12Z_MSC_RDPS_RelativeHumidity_IsbL-0150_RLatLon0.09_PT054H.grib2 2026-04-11 15:03 383K
20260411T12Z_MSC_RDPS_RelativeHumidity_IsbL-0175_RLatLon0.09_PT054H.grib2 2026-04-11 15:03 470K
20260411T12Z_MSC_RDPS_RelativeHumidity_IsbL-0200_RLatLon0.09_PT054H.grib2 2026-04-11 15:03 544K
20260411T12Z_MSC_RDPS_RelativeHumidity_IsbL-0225_RLatLon0.09_PT054H.grib2 2026-04-11 15:03 607K
20260411T12Z_MSC_RDPS_RelativeHumidity_IsbL-0250_RLatLon0.09_PT054H.grib2 2026-04-11 15:03 663K
20260411T12Z_MSC_RDPS_RelativeHumidity_IsbL-0275_RLatLon0.09_PT054H.grib2 2026-04-11 15:03 684K
20260411T12Z_MSC_RDPS_RelativeHumidity_IsbL-0300_RLatLon0.09_PT054H.grib2 2026-04-11 15:03 730K
20260411T12Z_MSC_RDPS_RelativeHumidity_IsbL-0350_RLatLon0.09_PT054H.grib2 2026-04-11 15:03 755K
20260411T12Z_MSC_RDPS_RelativeHumidity_IsbL-0400_RLatLon0.09_PT054H.grib2 2026-04-11 15:03 772K
20260411T12Z_MSC_RDPS_RelativeHumidity_IsbL-0450_RLatLon0.09_PT054H.grib2 2026-04-11 15:03 784K
20260411T12Z_MSC_RDPS_RelativeHumidity_IsbL-0500_RLatLon0.09_PT054H.grib2 2026-04-11 15:03 796K
20260411T12Z_MSC_RDPS_RelativeHumidity_IsbL-0550_RLatLon0.09_PT054H.grib2 2026-04-11 15:03 831K
20260411T12Z_MSC_RDPS_RelativeHumidity_IsbL-0600_RLatLon0.09_PT054H.grib2 2026-04-11 15:03 852K
20260411T12Z_MSC_RDPS_RelativeHumidity_IsbL-0650_RLatLon0.09_PT054H.grib2 2026-04-11 15:03 867K
20260411T12Z_MSC_RDPS_RelativeHumidity_IsbL-0700_RLatLon0.09_PT054H.grib2 2026-04-11 15:03 892K
20260411T12Z_MSC_RDPS_RelativeHumidity_IsbL-0750_RLatLon0.09_PT054H.grib2 2026-04-11 15:03 937K
20260411T12Z_MSC_RDPS_RelativeHumidity_IsbL-0800_RLatLon0.09_PT054H.grib2 2026-04-11 15:03 1.0M
20260411T12Z_MSC_RDPS_RelativeHumidity_IsbL-0850_RLatLon0.09_PT054H.grib2 2026-04-11 15:03 1.0M
20260411T12Z_MSC_RDPS_RelativeHumidity_IsbL-0875_RLatLon0.09_PT054H.grib2 2026-04-11 15:03 1.1M
20260411T12Z_MSC_RDPS_RelativeHumidity_IsbL-0900_RLatLon0.09_PT054H.grib2 2026-04-11 15:03 1.1M
20260411T12Z_MSC_RDPS_RelativeHumidity_IsbL-0925_RLatLon0.09_PT054H.grib2 2026-04-11 15:03 1.1M
20260411T12Z_MSC_RDPS_RelativeHumidity_IsbL-0950_RLatLon0.09_PT054H.grib2 2026-04-11 15:03 1.0M
20260411T12Z_MSC_RDPS_RelativeHumidity_IsbL-0970_RLatLon0.09_PT054H.grib2 2026-04-11 15:03 1.0M
20260411T12Z_MSC_RDPS_RelativeHumidity_IsbL-0985_RLatLon0.09_PT054H.grib2 2026-04-11 15:03 1.0M
20260411T12Z_MSC_RDPS_RelativeHumidity_IsbL-1000_RLatLon0.09_PT054H.grib2 2026-04-11 15:03 1.0M
20260411T12Z_MSC_RDPS_RelativeHumidity_IsbL-1015_RLatLon0.09_PT054H.grib2 2026-04-11 15:03 1.0M
20260411T12Z_MSC_RDPS_Runoff-Accum_Sfc_RLatLon0.09_PT054H.grib2 2026-04-11 15:03 58K
20260411T12Z_MSC_RDPS_SWEATIndex_Sfc_RLatLon0.09_PT054H.grib2 2026-04-11 15:03 2.4M
20260411T12Z_MSC_RDPS_SeeingIndex_EAtm_RLatLon0.09_PT054H.grib2 2026-04-11 15:03 1.0M
20260411T12Z_MSC_RDPS_SensibleHeatNetFlux_Sfc_RLatLon0.09_PT054H.grib2 2026-04-11 15:03 368K
20260411T12Z_MSC_RDPS_ShowalterIndex_IsbL-0500_RLatLon0.09_PT054H.grib2 2026-04-11 15:03 2.6M
20260411T12Z_MSC_RDPS_SkyTransparencyIndex_EAtm_RLatLon0.09_PT054H.grib2 2026-04-11 15:03 697K
20260411T12Z_MSC_RDPS_Snow-Accum12h_Sfc_RLatLon0.09_PT054H.grib2 2026-04-11 15:03 604K
20260411T12Z_MSC_RDPS_Snow-Accum1h_Sfc_RLatLon0.09_PT054H.grib2 2026-04-11 15:03 458K
20260411T12Z_MSC_RDPS_Snow-Accum24h_Sfc_RLatLon0.09_PT054H.grib2 2026-04-11 15:03 671K
20260411T12Z_MSC_RDPS_Snow-Accum3h_Sfc_RLatLon0.09_PT054H.grib2 2026-04-11 15:03 468K
20260411T12Z_MSC_RDPS_Snow-Accum6h_Sfc_RLatLon0.09_PT054H.grib2 2026-04-11 15:03 582K
20260411T12Z_MSC_RDPS_Snow-Accum_Sfc_RLatLon0.09_PT054H.grib2 2026-04-11 15:03 851K
20260411T12Z_MSC_RDPS_SnowDensity_Sfc_RLatLon0.09_PT054H.grib2 2026-04-11 15:03 179K
20260411T12Z_MSC_RDPS_SnowDepth_Sfc_RLatLon0.09_PT054H.grib2 2026-04-11 15:03 733K
20260411T12Z_MSC_RDPS_SoilTemp_DBS-0to10cm_RLatLon0.09_PT054H.grib2 2026-04-11 15:03 239K
20260411T12Z_MSC_RDPS_SoilTemp_Sfc_RLatLon0.09_PT054H.grib2 2026-04-11 15:03 296K
20260411T12Z_MSC_RDPS_SoilVolumetricIceContent_Sfc_RLatLon0.09_PT054H.grib2 2026-04-11 15:03 177K
20260411T12Z_MSC_RDPS_SoilVolumetricWaterContent_DBS-0to10cm_RLatLon0.09_PT054H.grib2 2026-04-11 15:03 242K
20260411T12Z_MSC_RDPS_SoilVolumetricWaterContent_DBS-0to1cm_RLatLon0.09_PT054H.grib2 2026-04-11 15:03 338K
20260411T12Z_MSC_RDPS_SpecificHumidity_AGL-120m_RLatLon0.09_PT054H.grib2 2026-04-11 15:03 474K
20260411T12Z_MSC_RDPS_SpecificHumidity_AGL-2m_RLatLon0.09_PT054H.grib2 2026-04-11 15:03 640K
20260411T12Z_MSC_RDPS_SpecificHumidity_AGL-40m_RLatLon0.09_PT054H.grib2 2026-04-11 15:03 479K
20260411T12Z_MSC_RDPS_SpecificHumidity_AGL-80m_RLatLon0.09_PT054H.grib2 2026-04-11 15:03 475K
20260411T12Z_MSC_RDPS_SpecificHumidity_IsbL-0001_RLatLon0.09_PT054H.grib2 2026-04-11 15:03 309K
20260411T12Z_MSC_RDPS_SpecificHumidity_IsbL-0005_RLatLon0.09_PT054H.grib2 2026-04-11 15:03 336K
20260411T12Z_MSC_RDPS_SpecificHumidity_IsbL-0010_RLatLon0.09_PT054H.grib2 2026-04-11 15:03 357K
20260411T12Z_MSC_RDPS_SpecificHumidity_IsbL-0020_RLatLon0.09_PT054H.grib2 2026-04-11 15:03 368K
20260411T12Z_MSC_RDPS_SpecificHumidity_IsbL-0030_RLatLon0.09_PT054H.grib2 2026-04-11 15:03 372K
20260411T12Z_MSC_RDPS_SpecificHumidity_IsbL-0050_RLatLon0.09_PT054H.grib2 2026-04-11 15:03 478K
20260411T12Z_MSC_RDPS_SpecificHumidity_IsbL-0100_RLatLon0.09_PT054H.grib2 2026-04-11 15:03 398K
20260411T12Z_MSC_RDPS_SpecificHumidity_IsbL-0150_RLatLon0.09_PT054H.grib2 2026-04-11 15:03 433K
20260411T12Z_MSC_RDPS_SpecificHumidity_IsbL-0175_RLatLon0.09_PT054H.grib2 2026-04-11 15:03 423K
20260411T12Z_MSC_RDPS_SpecificHumidity_IsbL-0200_RLatLon0.09_PT054H.grib2 2026-04-11 15:03 453K
20260411T12Z_MSC_RDPS_SpecificHumidity_IsbL-0225_RLatLon0.09_PT054H.grib2 2026-04-11 15:03 438K
20260411T12Z_MSC_RDPS_SpecificHumidity_IsbL-0250_RLatLon0.09_PT054H.grib2 2026-04-11 15:03 534K
20260411T12Z_MSC_RDPS_SpecificHumidity_IsbL-0275_RLatLon0.09_PT054H.grib2 2026-04-11 15:03 448K
20260411T12Z_MSC_RDPS_SpecificHumidity_IsbL-0300_RLatLon0.09_PT054H.grib2 2026-04-11 15:03 424K
20260411T12Z_MSC_RDPS_SpecificHumidity_IsbL-0350_RLatLon0.09_PT054H.grib2 2026-04-11 15:03 420K
20260411T12Z_MSC_RDPS_SpecificHumidity_IsbL-0400_RLatLon0.09_PT054H.grib2 2026-04-11 15:03 497K
20260411T12Z_MSC_RDPS_SpecificHumidity_IsbL-0450_RLatLon0.09_PT054H.grib2 2026-04-11 15:03 554K
20260411T12Z_MSC_RDPS_SpecificHumidity_IsbL-0500_RLatLon0.09_PT054H.grib2 2026-04-11 15:03 494K
20260411T12Z_MSC_RDPS_SpecificHumidity_IsbL-0550_RLatLon0.09_PT054H.grib2 2026-04-11 15:03 572K
20260411T12Z_MSC_RDPS_SpecificHumidity_IsbL-0600_RLatLon0.09_PT054H.grib2 2026-04-11 15:03 625K
20260411T12Z_MSC_RDPS_SpecificHumidity_IsbL-0650_RLatLon0.09_PT054H.grib2 2026-04-11 15:03 544K
20260411T12Z_MSC_RDPS_SpecificHumidity_IsbL-0700_RLatLon0.09_PT054H.grib2 2026-04-11 15:03 588K
20260411T12Z_MSC_RDPS_SpecificHumidity_IsbL-0750_RLatLon0.09_PT054H.grib2 2026-04-11 15:03 645K
20260411T12Z_MSC_RDPS_SpecificHumidity_IsbL-0800_RLatLon0.09_PT054H.grib2 2026-04-11 15:03 725K
20260411T12Z_MSC_RDPS_SpecificHumidity_IsbL-0850_RLatLon0.09_PT054H.grib2 2026-04-11 15:03 790K
20260411T12Z_MSC_RDPS_SpecificHumidity_IsbL-0875_RLatLon0.09_PT054H.grib2 2026-04-11 15:03 807K
20260411T12Z_MSC_RDPS_SpecificHumidity_IsbL-0900_RLatLon0.09_PT054H.grib2 2026-04-11 15:03 674K
20260411T12Z_MSC_RDPS_SpecificHumidity_IsbL-0925_RLatLon0.09_PT054H.grib2 2026-04-11 15:03 676K
20260411T12Z_MSC_RDPS_SpecificHumidity_IsbL-0950_RLatLon0.09_PT054H.grib2 2026-04-11 15:03 675K
20260411T12Z_MSC_RDPS_SpecificHumidity_IsbL-0970_RLatLon0.09_PT054H.grib2 2026-04-11 15:03 672K
20260411T12Z_MSC_RDPS_SpecificHumidity_IsbL-0985_RLatLon0.09_PT054H.grib2 2026-04-11 15:03 669K
20260411T12Z_MSC_RDPS_SpecificHumidity_IsbL-1000_RLatLon0.09_PT054H.grib2 2026-04-11 15:03 661K
20260411T12Z_MSC_RDPS_SpecificHumidity_IsbL-1015_RLatLon0.09_PT054H.grib2 2026-04-11 15:03 649K
20260411T12Z_MSC_RDPS_SpecificHumidity_Sfc_RLatLon0.09_PT054H.grib2 2026-04-11 15:03 321K
20260411T12Z_MSC_RDPS_StormRelativeHelicity_EtaL-10000_RLatLon0.09_PT054H.grib2 2026-04-11 15:03 1.1M
20260411T12Z_MSC_RDPS_StormSeverityIndex_EtaL-10000_RLatLon0.09_PT054H.grib2 2026-04-11 15:03 1.2M
20260411T12Z_MSC_RDPS_Thickness_IsbL-0850to0700_RLatLon0.09_PT054H.grib2 2026-04-11 15:03 199K
20260411T12Z_MSC_RDPS_Thickness_IsbL-1000to0500_RLatLon0.09_PT054H.grib2 2026-04-11 15:03 140K
20260411T12Z_MSC_RDPS_Thickness_IsbL-1000to0850_RLatLon0.09_PT054H.grib2 2026-04-11 15:03 192K
20260411T12Z_MSC_RDPS_TotalCloudCover_Sfc_RLatLon0.09_PT054H.grib2 2026-04-11 15:03 655K
20260411T12Z_MSC_RDPS_TotalTotalsIndex_Sfc_RLatLon0.09_PT054H.grib2 2026-04-11 15:03 2.4M
20260411T12Z_MSC_RDPS_UVIndex-ClearSky-Max24h_Sfc_RLatLon0.09_PT054H.grib2 2026-04-11 15:03 284K
20260411T12Z_MSC_RDPS_UVIndex-ClearSky_Sfc_RLatLon0.09_PT054H.grib2 2026-04-11 15:03 212K
20260411T12Z_MSC_RDPS_UVIndex-Max24h_Sfc_RLatLon0.09_PT054H.grib2 2026-04-11 15:03 636K
20260411T12Z_MSC_RDPS_UVIndex_Sfc_RLatLon0.09_PT054H.grib2 2026-04-11 15:03 500K
20260411T12Z_MSC_RDPS_UpwardLongwaveRadiationFlux_NTAtm_RLatLon0.09_PT054H.grib2 2026-04-11 15:03 375K
20260411T12Z_MSC_RDPS_UpwardShortwaveRadiationFlux_NTAtm_RLatLon0.09_PT054H.grib2 2026-04-11 15:03 531K
20260411T12Z_MSC_RDPS_VerticalVelocity_IsbL-0250_RLatLon0.09_PT054H.grib2 2026-04-11 15:03 554K
20260411T12Z_MSC_RDPS_VerticalVelocity_IsbL-0500_RLatLon0.09_PT054H.grib2 2026-04-11 15:03 544K
20260411T12Z_MSC_RDPS_VerticalVelocity_IsbL-0700_RLatLon0.09_PT054H.grib2 2026-04-11 15:03 630K
20260411T12Z_MSC_RDPS_VerticalVelocity_IsbL-0850_RLatLon0.09_PT054H.grib2 2026-04-11 15:03 708K
20260411T12Z_MSC_RDPS_VerticalWindShear_EtaL-6500_RLatLon0.09_PT054H.grib2 2026-04-11 15:03 1.2M
20260411T12Z_MSC_RDPS_WindChill_Sfc_RLatLon0.09_PT054H.grib2 2026-04-11 15:03 1.1M
20260411T12Z_MSC_RDPS_WindDir_AGL-10m_RLatLon0.09_PT054H.grib2 2026-04-11 15:03 936K
20260411T12Z_MSC_RDPS_WindDir_AGL-120m_RLatLon0.09_PT054H.grib2 2026-04-11 15:03 581K
20260411T12Z_MSC_RDPS_WindDir_AGL-40m_RLatLon0.09_PT054H.grib2 2026-04-11 15:03 603K
20260411T12Z_MSC_RDPS_WindDir_AGL-80m_RLatLon0.09_PT054H.grib2 2026-04-11 15:03 589K
20260411T12Z_MSC_RDPS_WindDir_IsbL-0001_RLatLon0.09_PT054H.grib2 2026-04-11 15:03 260K
20260411T12Z_MSC_RDPS_WindDir_IsbL-0005_RLatLon0.09_PT054H.grib2 2026-04-11 15:03 333K
20260411T12Z_MSC_RDPS_WindDir_IsbL-0010_RLatLon0.09_PT054H.grib2 2026-04-11 15:03 350K
20260411T12Z_MSC_RDPS_WindDir_IsbL-0020_RLatLon0.09_PT054H.grib2 2026-04-11 15:03 387K
20260411T12Z_MSC_RDPS_WindDir_IsbL-0030_RLatLon0.09_PT054H.grib2 2026-04-11 15:03 367K
20260411T12Z_MSC_RDPS_WindDir_IsbL-0050_RLatLon0.09_PT054H.grib2 2026-04-11 15:03 395K
20260411T12Z_MSC_RDPS_WindDir_IsbL-0100_RLatLon0.09_PT054H.grib2 2026-04-11 15:03 386K
20260411T12Z_MSC_RDPS_WindDir_IsbL-0150_RLatLon0.09_PT054H.grib2 2026-04-11 15:03 376K
20260411T12Z_MSC_RDPS_WindDir_IsbL-0175_RLatLon0.09_PT054H.grib2 2026-04-11 15:03 396K
20260411T12Z_MSC_RDPS_WindDir_IsbL-0200_RLatLon0.09_PT054H.grib2 2026-04-11 15:03 410K
20260411T12Z_MSC_RDPS_WindDir_IsbL-0225_RLatLon0.09_PT054H.grib2 2026-04-11 15:03 416K
20260411T12Z_MSC_RDPS_WindDir_IsbL-0250_RLatLon0.09_PT054H.grib2 2026-04-11 15:03 421K
20260411T12Z_MSC_RDPS_WindDir_IsbL-0275_RLatLon0.09_PT054H.grib2 2026-04-11 15:03 440K
20260411T12Z_MSC_RDPS_WindDir_IsbL-0300_RLatLon0.09_PT054H.grib2 2026-04-11 15:03 441K
20260411T12Z_MSC_RDPS_WindDir_IsbL-0350_RLatLon0.09_PT054H.grib2 2026-04-11 15:03 474K
20260411T12Z_MSC_RDPS_WindDir_IsbL-0400_RLatLon0.09_PT054H.grib2 2026-04-11 15:03 494K
20260411T12Z_MSC_RDPS_WindDir_IsbL-0450_RLatLon0.09_PT054H.grib2 2026-04-11 15:03 519K
20260411T12Z_MSC_RDPS_WindDir_IsbL-0500_RLatLon0.09_PT054H.grib2 2026-04-11 15:03 536K
20260411T12Z_MSC_RDPS_WindDir_IsbL-0550_RLatLon0.09_PT054H.grib2 2026-04-11 15:03 565K
20260411T12Z_MSC_RDPS_WindDir_IsbL-0600_RLatLon0.09_PT054H.grib2 2026-04-11 15:03 591K
20260411T12Z_MSC_RDPS_WindDir_IsbL-0650_RLatLon0.09_PT054H.grib2 2026-04-11 15:03 632K
20260411T12Z_MSC_RDPS_WindDir_IsbL-0700_RLatLon0.09_PT054H.grib2 2026-04-11 15:03 666K
20260411T12Z_MSC_RDPS_WindDir_IsbL-0750_RLatLon0.09_PT054H.grib2 2026-04-11 15:03 708K
20260411T12Z_MSC_RDPS_WindDir_IsbL-0800_RLatLon0.09_PT054H.grib2 2026-04-11 15:03 763K
20260411T12Z_MSC_RDPS_WindDir_IsbL-0850_RLatLon0.09_PT054H.grib2 2026-04-11 15:03 829K
20260411T12Z_MSC_RDPS_WindDir_IsbL-0875_RLatLon0.09_PT054H.grib2 2026-04-11 15:03 853K
20260411T12Z_MSC_RDPS_WindDir_IsbL-0900_RLatLon0.09_PT054H.grib2 2026-04-11 15:03 863K
20260411T12Z_MSC_RDPS_WindDir_IsbL-0925_RLatLon0.09_PT054H.grib2 2026-04-11 15:03 871K
20260411T12Z_MSC_RDPS_WindDir_IsbL-0950_RLatLon0.09_PT054H.grib2 2026-04-11 15:03 877K
20260411T12Z_MSC_RDPS_WindDir_IsbL-0970_RLatLon0.09_PT054H.grib2 2026-04-11 15:03 883K
20260411T12Z_MSC_RDPS_WindDir_IsbL-0985_RLatLon0.09_PT054H.grib2 2026-04-11 15:03 894K
20260411T12Z_MSC_RDPS_WindDir_IsbL-1000_RLatLon0.09_PT054H.grib2 2026-04-11 15:03 908K
20260411T12Z_MSC_RDPS_WindDir_IsbL-1015_RLatLon0.09_PT054H.grib2 2026-04-11 15:03 923K
20260411T12Z_MSC_RDPS_WindGust-Max_AGL-10m_RLatLon0.09_PT054H.grib2 2026-04-11 15:03 953K
20260411T12Z_MSC_RDPS_WindGust-Min_AGL-10m_RLatLon0.09_PT054H.grib2 2026-04-11 15:03 1.0M
20260411T12Z_MSC_RDPS_WindGust_AGL-10m_RLatLon0.09_PT054H.grib2 2026-04-11 15:03 1.0M
20260411T12Z_MSC_RDPS_WindSpeed_AGL-10m_RLatLon0.09_PT054H.grib2 2026-04-11 15:03 845K
20260411T12Z_MSC_RDPS_WindSpeed_AGL-120m_RLatLon0.09_PT054H.grib2 2026-04-11 15:03 551K
20260411T12Z_MSC_RDPS_WindSpeed_AGL-40m_RLatLon0.09_PT054H.grib2 2026-04-11 15:03 544K
20260411T12Z_MSC_RDPS_WindSpeed_AGL-80m_RLatLon0.09_PT054H.grib2 2026-04-11 15:03 541K
20260411T12Z_MSC_RDPS_WindSpeed_IsbL-0001_RLatLon0.09_PT054H.grib2 2026-04-11 15:03 271K
20260411T12Z_MSC_RDPS_WindSpeed_IsbL-0005_RLatLon0.09_PT054H.grib2 2026-04-11 15:03 315K
20260411T12Z_MSC_RDPS_WindSpeed_IsbL-0010_RLatLon0.09_PT054H.grib2 2026-04-11 15:03 355K
20260411T12Z_MSC_RDPS_WindSpeed_IsbL-0020_RLatLon0.09_PT054H.grib2 2026-04-11 15:03 344K
20260411T12Z_MSC_RDPS_WindSpeed_IsbL-0030_RLatLon0.09_PT054H.grib2 2026-04-11 15:03 343K
20260411T12Z_MSC_RDPS_WindSpeed_IsbL-0050_RLatLon0.09_PT054H.grib2 2026-04-11 15:03 377K
20260411T12Z_MSC_RDPS_WindSpeed_IsbL-0100_RLatLon0.09_PT054H.grib2 2026-04-11 15:03 494K
20260411T12Z_MSC_RDPS_WindSpeed_IsbL-0150_RLatLon0.09_PT054H.grib2 2026-04-11 15:03 376K
20260411T12Z_MSC_RDPS_WindSpeed_IsbL-0175_RLatLon0.09_PT054H.grib2 2026-04-11 15:03 420K
20260411T12Z_MSC_RDPS_WindSpeed_IsbL-0200_RLatLon0.09_PT054H.grib2 2026-04-11 15:03 436K
20260411T12Z_MSC_RDPS_WindSpeed_IsbL-0225_RLatLon0.09_PT054H.grib2 2026-04-11 15:03 443K
20260411T12Z_MSC_RDPS_WindSpeed_IsbL-0250_RLatLon0.09_PT054H.grib2 2026-04-11 15:03 445K
20260411T12Z_MSC_RDPS_WindSpeed_IsbL-0275_RLatLon0.09_PT054H.grib2 2026-04-11 15:03 457K
20260411T12Z_MSC_RDPS_WindSpeed_IsbL-0300_RLatLon0.09_PT054H.grib2 2026-04-11 15:03 456K
20260411T12Z_MSC_RDPS_WindSpeed_IsbL-0350_RLatLon0.09_PT054H.grib2 2026-04-11 15:03 465K
20260411T12Z_MSC_RDPS_WindSpeed_IsbL-0400_RLatLon0.09_PT054H.grib2 2026-04-11 15:03 469K
20260411T12Z_MSC_RDPS_WindSpeed_IsbL-0450_RLatLon0.09_PT054H.grib2 2026-04-11 15:03 458K
20260411T12Z_MSC_RDPS_WindSpeed_IsbL-0500_RLatLon0.09_PT054H.grib2 2026-04-11 15:03 461K
20260411T12Z_MSC_RDPS_WindSpeed_IsbL-0550_RLatLon0.09_PT054H.grib2 2026-04-11 15:03 465K
20260411T12Z_MSC_RDPS_WindSpeed_IsbL-0600_RLatLon0.09_PT054H.grib2 2026-04-11 15:03 595K
20260411T12Z_MSC_RDPS_WindSpeed_IsbL-0650_RLatLon0.09_PT054H.grib2 2026-04-11 15:03 618K
20260411T12Z_MSC_RDPS_WindSpeed_IsbL-0700_RLatLon0.09_PT054H.grib2 2026-04-11 15:03 683K
20260411T12Z_MSC_RDPS_WindSpeed_IsbL-0750_RLatLon0.09_PT054H.grib2 2026-04-11 15:03 716K
20260411T12Z_MSC_RDPS_WindSpeed_IsbL-0800_RLatLon0.09_PT054H.grib2 2026-04-11 15:03 720K
20260411T12Z_MSC_RDPS_WindSpeed_IsbL-0850_RLatLon0.09_PT054H.grib2 2026-04-11 15:03 777K
20260411T12Z_MSC_RDPS_WindSpeed_IsbL-0875_RLatLon0.09_PT054H.grib2 2026-04-11 15:03 798K
20260411T12Z_MSC_RDPS_WindSpeed_IsbL-0900_RLatLon0.09_PT054H.grib2 2026-04-11 15:03 811K
20260411T12Z_MSC_RDPS_WindSpeed_IsbL-0925_RLatLon0.09_PT054H.grib2 2026-04-11 15:03 866K
20260411T12Z_MSC_RDPS_WindSpeed_IsbL-0950_RLatLon0.09_PT054H.grib2 2026-04-11 15:03 867K
20260411T12Z_MSC_RDPS_WindSpeed_IsbL-0970_RLatLon0.09_PT054H.grib2 2026-04-11 15:03 869K
20260411T12Z_MSC_RDPS_WindSpeed_IsbL-0985_RLatLon0.09_PT054H.grib2 2026-04-11 15:03 862K
20260411T12Z_MSC_RDPS_WindSpeed_IsbL-1000_RLatLon0.09_PT054H.grib2 2026-04-11 15:03 856K
20260411T12Z_MSC_RDPS_WindSpeed_IsbL-1015_RLatLon0.09_PT054H.grib2 2026-04-11 15:03 845K
20260411T12Z_MSC_RDPS_WindU_AGL-10m_RLatLon0.09_PT054H.grib2 2026-04-11 15:03 388K
20260411T12Z_MSC_RDPS_WindU_AGL-120m_RLatLon0.09_PT054H.grib2 2026-04-11 15:03 421K
20260411T12Z_MSC_RDPS_WindU_AGL-40m_RLatLon0.09_PT054H.grib2 2026-04-11 15:03 423K
20260411T12Z_MSC_RDPS_WindU_AGL-80m_RLatLon0.09_PT054H.grib2 2026-04-11 15:03 422K
20260411T12Z_MSC_RDPS_WindU_IsbL-0001_RLatLon0.09_PT054H.grib2 2026-04-11 15:03 266K
20260411T12Z_MSC_RDPS_WindU_IsbL-0005_RLatLon0.09_PT054H.grib2 2026-04-11 15:03 240K
20260411T12Z_MSC_RDPS_WindU_IsbL-0010_RLatLon0.09_PT054H.grib2 2026-04-11 15:03 319K
20260411T12Z_MSC_RDPS_WindU_IsbL-0020_RLatLon0.09_PT054H.grib2 2026-04-11 15:03 340K
20260411T12Z_MSC_RDPS_WindU_IsbL-0030_RLatLon0.09_PT054H.grib2 2026-04-11 15:03 373K
20260411T12Z_MSC_RDPS_WindU_IsbL-0050_RLatLon0.09_PT054H.grib2 2026-04-11 15:03 369K
20260411T12Z_MSC_RDPS_WindU_IsbL-0100_RLatLon0.09_PT054H.grib2 2026-04-11 15:03 348K
20260411T12Z_MSC_RDPS_WindU_IsbL-0150_RLatLon0.09_PT054H.grib2 2026-04-11 15:03 392K
20260411T12Z_MSC_RDPS_WindU_IsbL-0175_RLatLon0.09_PT054H.grib2 2026-04-11 15:03 415K
20260411T12Z_MSC_RDPS_WindU_IsbL-0200_RLatLon0.09_PT054H.grib2 2026-04-11 15:03 430K
20260411T12Z_MSC_RDPS_WindU_IsbL-0225_RLatLon0.09_PT054H.grib2 2026-04-11 15:03 435K
20260411T12Z_MSC_RDPS_WindU_IsbL-0250_RLatLon0.09_PT054H.grib2 2026-04-11 15:03 436K
20260411T12Z_MSC_RDPS_WindU_IsbL-0275_RLatLon0.09_PT054H.grib2 2026-04-11 15:03 348K
20260411T12Z_MSC_RDPS_WindU_IsbL-0300_RLatLon0.09_PT054H.grib2 2026-04-11 15:03 346K
20260411T12Z_MSC_RDPS_WindU_IsbL-0350_RLatLon0.09_PT054H.grib2 2026-04-11 15:03 454K
20260411T12Z_MSC_RDPS_WindU_IsbL-0400_RLatLon0.09_PT054H.grib2 2026-04-11 15:03 459K
20260411T12Z_MSC_RDPS_WindU_IsbL-0450_RLatLon0.09_PT054H.grib2 2026-04-11 15:03 465K
20260411T12Z_MSC_RDPS_WindU_IsbL-0500_RLatLon0.09_PT054H.grib2 2026-04-11 15:03 467K
20260411T12Z_MSC_RDPS_WindU_IsbL-0550_RLatLon0.09_PT054H.grib2 2026-04-11 15:03 472K
20260411T12Z_MSC_RDPS_WindU_IsbL-0600_RLatLon0.09_PT054H.grib2 2026-04-11 15:03 484K
20260411T12Z_MSC_RDPS_WindU_IsbL-0650_RLatLon0.09_PT054H.grib2 2026-04-11 15:03 505K
20260411T12Z_MSC_RDPS_WindU_IsbL-0700_RLatLon0.09_PT054H.grib2 2026-04-11 15:03 509K
20260411T12Z_MSC_RDPS_WindU_IsbL-0750_RLatLon0.09_PT054H.grib2 2026-04-11 15:03 537K
20260411T12Z_MSC_RDPS_WindU_IsbL-0800_RLatLon0.09_PT054H.grib2 2026-04-11 15:03 581K
20260411T12Z_MSC_RDPS_WindU_IsbL-0850_RLatLon0.09_PT054H.grib2 2026-04-11 15:03 641K
20260411T12Z_MSC_RDPS_WindU_IsbL-0875_RLatLon0.09_PT054H.grib2 2026-04-11 15:03 658K
20260411T12Z_MSC_RDPS_WindU_IsbL-0900_RLatLon0.09_PT054H.grib2 2026-04-11 15:03 666K
20260411T12Z_MSC_RDPS_WindU_IsbL-0925_RLatLon0.09_PT054H.grib2 2026-04-11 15:03 669K
20260411T12Z_MSC_RDPS_WindU_IsbL-0950_RLatLon0.09_PT054H.grib2 2026-04-11 15:03 662K
20260411T12Z_MSC_RDPS_WindU_IsbL-0970_RLatLon0.09_PT054H.grib2 2026-04-11 15:03 662K
20260411T12Z_MSC_RDPS_WindU_IsbL-0985_RLatLon0.09_PT054H.grib2 2026-04-11 15:03 659K
20260411T12Z_MSC_RDPS_WindU_IsbL-1000_RLatLon0.09_PT054H.grib2 2026-04-11 15:03 656K
20260411T12Z_MSC_RDPS_WindU_IsbL-1015_RLatLon0.09_PT054H.grib2 2026-04-11 15:03 649K
20260411T12Z_MSC_RDPS_WindV_AGL-10m_RLatLon0.09_PT054H.grib2 2026-04-11 15:03 436K
20260411T12Z_MSC_RDPS_WindV_AGL-120m_RLatLon0.09_PT054H.grib2 2026-04-11 15:03 535K
20260411T12Z_MSC_RDPS_WindV_AGL-40m_RLatLon0.09_PT054H.grib2 2026-04-11 15:03 539K
20260411T12Z_MSC_RDPS_WindV_AGL-80m_RLatLon0.09_PT054H.grib2 2026-04-11 15:03 536K
20260411T12Z_MSC_RDPS_WindV_IsbL-0001_RLatLon0.09_PT054H.grib2 2026-04-11 15:03 212K
20260411T12Z_MSC_RDPS_WindV_IsbL-0005_RLatLon0.09_PT054H.grib2 2026-04-11 15:03 240K
20260411T12Z_MSC_RDPS_WindV_IsbL-0010_RLatLon0.09_PT054H.grib2 2026-04-11 15:03 320K
20260411T12Z_MSC_RDPS_WindV_IsbL-0020_RLatLon0.09_PT054H.grib2 2026-04-11 15:03 374K
20260411T12Z_MSC_RDPS_WindV_IsbL-0030_RLatLon0.09_PT054H.grib2 2026-04-11 15:03 372K
20260411T12Z_MSC_RDPS_WindV_IsbL-0050_RLatLon0.09_PT054H.grib2 2026-04-11 15:03 401K
20260411T12Z_MSC_RDPS_WindV_IsbL-0100_RLatLon0.09_PT054H.grib2 2026-04-11 15:03 344K
20260411T12Z_MSC_RDPS_WindV_IsbL-0150_RLatLon0.09_PT054H.grib2 2026-04-11 15:03 390K
20260411T12Z_MSC_RDPS_WindV_IsbL-0175_RLatLon0.09_PT054H.grib2 2026-04-11 15:03 318K
20260411T12Z_MSC_RDPS_WindV_IsbL-0200_RLatLon0.09_PT054H.grib2 2026-04-11 15:03 331K
20260411T12Z_MSC_RDPS_WindV_IsbL-0225_RLatLon0.09_PT054H.grib2 2026-04-11 15:03 336K
20260411T12Z_MSC_RDPS_WindV_IsbL-0250_RLatLon0.09_PT054H.grib2 2026-04-11 15:03 362K
20260411T12Z_MSC_RDPS_WindV_IsbL-0275_RLatLon0.09_PT054H.grib2 2026-04-11 15:03 372K
20260411T12Z_MSC_RDPS_WindV_IsbL-0300_RLatLon0.09_PT054H.grib2 2026-04-11 15:03 370K
20260411T12Z_MSC_RDPS_WindV_IsbL-0350_RLatLon0.09_PT054H.grib2 2026-04-11 15:03 376K
20260411T12Z_MSC_RDPS_WindV_IsbL-0400_RLatLon0.09_PT054H.grib2 2026-04-11 15:03 381K
20260411T12Z_MSC_RDPS_WindV_IsbL-0450_RLatLon0.09_PT054H.grib2 2026-04-11 15:03 361K
20260411T12Z_MSC_RDPS_WindV_IsbL-0500_RLatLon0.09_PT054H.grib2 2026-04-11 15:03 363K
20260411T12Z_MSC_RDPS_WindV_IsbL-0550_RLatLon0.09_PT054H.grib2 2026-04-11 15:03 469K
20260411T12Z_MSC_RDPS_WindV_IsbL-0600_RLatLon0.09_PT054H.grib2 2026-04-11 15:03 480K
20260411T12Z_MSC_RDPS_WindV_IsbL-0650_RLatLon0.09_PT054H.grib2 2026-04-11 15:03 501K
20260411T12Z_MSC_RDPS_WindV_IsbL-0700_RLatLon0.09_PT054H.grib2 2026-04-11 15:03 519K
20260411T12Z_MSC_RDPS_WindV_IsbL-0750_RLatLon0.09_PT054H.grib2 2026-04-11 15:03 533K
20260411T12Z_MSC_RDPS_WindV_IsbL-0800_RLatLon0.09_PT054H.grib2 2026-04-11 15:03 575K
20260411T12Z_MSC_RDPS_WindV_IsbL-0850_RLatLon0.09_PT054H.grib2 2026-04-11 15:03 625K
20260411T12Z_MSC_RDPS_WindV_IsbL-0875_RLatLon0.09_PT054H.grib2 2026-04-11 15:03 644K
20260411T12Z_MSC_RDPS_WindV_IsbL-0900_RLatLon0.09_PT054H.grib2 2026-04-11 15:03 661K
20260411T12Z_MSC_RDPS_WindV_IsbL-0925_RLatLon0.09_PT054H.grib2 2026-04-11 15:03 660K
20260411T12Z_MSC_RDPS_WindV_IsbL-0950_RLatLon0.09_PT054H.grib2 2026-04-11 15:03 658K
20260411T12Z_MSC_RDPS_WindV_IsbL-0970_RLatLon0.09_PT054H.grib2 2026-04-11 15:03 658K
20260411T12Z_MSC_RDPS_WindV_IsbL-0985_RLatLon0.09_PT054H.grib2 2026-04-11 15:03 797K
20260411T12Z_MSC_RDPS_WindV_IsbL-1000_RLatLon0.09_PT054H.grib2 2026-04-11 15:03 792K
20260411T12Z_MSC_RDPS_WindV_IsbL-1015_RLatLon0.09_PT054H.grib2 2026-04-11 15:03 784K